KB3MVG-13 Weather Reports


time (UTC)temp
F
wind
direction
speed
knots
gust
knots
rain 1hr
in
rain 24hr
in
rain mn
in
humidity
%
barometer
mb
20260505052015 46 250 0.0 0.0 0.00 0.12 0.12 90 1015.8
20260505051015 46 250 0.0 0.0 0.01 0.12 0.12 89 1015.9
20260505041015 46 248 2.6 5.2 0.06 0.11 0.11 88 1016.1
20260505040017 46 347 0.0 0.0 0.07 0.11 0.11 87 1015.8
20260505035017 46 338 0.9 4.3 0.05 0.09 0.09 84 1015.1
20260505034037 46 338 6.1 9.6 0.04 0.08 0.08 82 1015.0
20260505033017 47 0 11.3 17.4 0.03 0.07 0.07 81 1015.1
20260505032017 48 0 12.2 18.2 0.02 0.06 0.06 81 1015.3
20260505031017 49 338 9.6 16.5 0.01 0.05 0.05 75 1014.9
20260505030016 50 0 9.6 13.9 0.00 0.04 0.04 70 1014.7
20260505025017 50 338 8.7 12.2 0.00 0.04 0.04 70 1014.7
20260505024017 50 338 7.8 12.2 0.00 0.04 0.04 69 1014.1
20260505023017 51 0 4.3 12.2 0.00 0.04 0.04 74 1014.4
20260505022017 51 246 0.0 0.0 0.00 0.04 0.04 77 1013.7
20260505021037 51 246 0.0 0.0 0.00 0.04 0.04 75 1013.2
20260505020057 51 246 0.0 0.0 0.00 0.04 0.04 75 1012.9
20260505015017 51 246 0.0 0.0 0.00 0.04 0.04 75 1012.9
20260505014017 51 246 0.0 0.0 0.00 0.04 0.04 77 1012.6
20260505013037 52 248 1.7 3.5 0.00 0.04 0.04 74 1012.4
20260505012016 52 293 0.9 4.3 0.03 0.04 0.04 73 1012.7
20260505011016 52 337 0.0 0.0 0.03 0.04 0.04 73 1012.6
20260505010057 52 337 0.0 0.0 0.04 0.04 0.04 72 1012.3
20260505005015 51 337 0.0 0.0 0.04 0.04 0.04 72 1011.9
20260505004017 51 338 4.3 7.8 0.04 0.04 0.04 67 1011.9
20260505003017 51 23 7.8 11.3 0.04 0.04 0.04 64 1012.3
20260505002016 53 0 7.8 16.5 0.01 0.01 0.01 58 1012.8
20260505001016 54 90 6.1 17.4 0.01 0.01 0.01 58 1013.0
20260505000017 57 0 5.2 8.7 0.00 0.00 0.00 41 1012.8
20260504235016 58 338 7.8 13.0 0.00 0.00 0.00 39 1011.7
20260504234017 58 338 8.7 13.0 0.00 0.00 0.00 39 1011.6
20260504233017 58 338 10.4 16.5 0.00 0.00 0.00 38 1011.4
20260504232016 58 338 11.3 14.8 0.00 0.00 0.00 39 1011.2
20260504231016 58 338 12.2 18.2 0.00 0.00 0.00 38 1011.7
20260504230017 60 338 12.2 21.7 0.00 0.00 0.00 35 1011.5
20260504225017 60 0 11.3 19.1 0.00 0.00 0.00 33 1011.2
20260504224036 59 338 13.9 20.9 0.00 0.00 0.00 35 1011.3
20260504223017 60 338 15.6 23.5 0.00 0.00 0.00 35 1010.7
20260504222036 60 338 15.6 28.7 0.00 0.00 0.00 33 1010.9
20260504221017 60 0 15.6 21.7 0.00 0.00 0.00 31 1010.8
20260504220016 61 0 14.8 26.1 0.00 0.00 0.00 29 1010.7
20260504215057 66 45 2.6 7.8 0.00 0.00 0.00 22 1011.0
20260504214057 66 90 2.6 7.8 0.00 0.00 0.00 22 1011.1
20260504213016 66 0 2.6 10.4 0.00 0.00 0.00 22 1011.0
20260504212016 66 0 1.7 7.0 0.00 0.00 0.00 22 1010.8
20260504211017 66 68 7.0 10.4 0.00 0.00 0.00 22 1011.3
20260504210017 68 90 2.6 7.0 0.00 0.00 0.00 21 1012.3
20260504205016 67 90 3.5 7.8 0.00 0.00 0.00 23 1012.1
20260504204017 65 315 3.5 7.8 0.00 0.00 0.00 24 1012.0
20260504203037 65 0 4.3 11.3 0.00 0.00 0.00 24 1012.3
20260504202016 64 0 6.1 12.2 0.00 0.00 0.00 26 1012.1
20260504201016 63 338 7.8 12.2 0.00 0.00 0.00 27 1012.4
20260504200016 62 338 6.1 11.3 0.00 0.00 0.00 27 1012.5
20260504195016 62 0 6.1 12.2 0.00 0.00 0.00 27 1011.8
20260504194016 62 45 7.0 13.9 0.00 0.00 0.00 28 1012.1
20260504193017 61 0 6.1 10.4 0.00 0.00 0.00 28 1012.0
20260504192036 61 0 8.7 13.0 0.00 0.00 0.00 29 1012.2
20260504191016 60 158 2.6 8.7 0.00 0.00 0.00 29 1012.8
20260504190017 60 158 7.8 15.6 0.00 0.00 0.00 31 1012.8
20260504185017 62 158 13.9 27.8 0.00 0.00 0.00 26 1012.9
20260504184016 64 158 7.8 22.6 0.00 0.00 0.00 28 1013.0
20260504183016 66 135 7.8 14.8 0.00 0.00 0.00 18 1013.1
20260504182017 67 113 3.5 7.8 0.00 0.00 0.00 19 1013.0
20260504181016 67 90 5.2 10.4 0.00 0.00 0.00 18 1013.3
20260504180016 68 338 2.6 8.7 0.00 0.00 0.00 16 1013.6
20260504175016 69 45 5.2 10.4 0.00 0.00 0.00 16 1013.7
20260504174016 69 45 2.6 7.0 0.00 0.00 0.00 16 1013.8
20260504173016 69 135 3.5 8.7 0.00 0.00 0.00 15 1014.1
20260504172017 68 248 3.5 6.1 0.00 0.00 0.00 16 1013.8
20260504171016 68 248 3.5 7.8 0.00 0.00 0.00 17 1014.3
20260504151016 64 0 7.0 12.2 0.00 0.00 0.00 19 1014.9
20260504141016 59 0 7.8 12.2 0.00 0.00 0.00 21 1014.3
20260504081016 53 161 0.0 0.0 0.00 0.00 0.00 27 1015.5